Theta_e
297 297 297 298 298 298 298 299 300 301 303 304 309 318 325 327 327 327 326 326 323 322 322 321 320 321 320 320 320 319 319 320 320 321 321 322 321 321 320 319 317 317 317
294 295 295 295 296 296 296 297 297 297 298 299 301 303 308 318 324 326 326 325 324 323 323 321 321 321 320 321 321 320 321 321 321 321 321 320 320 320 319 317 316 316 315
291 292 292 293 293 294 294 294 295 295 296 297 297 298 300 303 310 320 324 325 325 325 324 323 323 322 321 321 321 321 321 321 321 321 321 319 318 318 313 312 312 310 311
288 289 289 290 291 291 291 291 292 292 293 294 295 296 297 298 301 306 313 320 323 324 325 325 324 324 323 322 322 322 322 321 321 321 321 314 314 313 313 308 306 306 307
285 286 287 288 289 288 288 288 289 290 291 292 293 294 295 296 298 301 304 309 315 319 322 324 324 324 324 324 323 322 322 321 321 320 319 310 309 307 306 308 306 307 304
283 284 286 287 285 284 284 285 286 287 288 290 291 292 293 294 295 296 298 301 305 310 315 318 321 323 324 324 324 324 324 322 321 320 318 312 308 310 309 308 305 300 295
281 282 282 281 280 280 281 282 283 284 285 286 288 289 290 292 293 294 295 297 300 303 307 311 315 318 320 322 322 324 324 324 322 322 318 316 315 312 310 305 304 305 304
279 278 277 277 277 278 279 280 280 281 283 285 286 287 288 289 290 292 293 294 296 298 301 305 309 313 317 319 320 320 321 321 322 320 321 319 316 316 315 312 310 305 302
276 275 275 275 276 276 276 277 278 280 280 281 281 282 284 286 288 289 291 292 294 295 297 300 305 309 312 316 319 319 318 319 321 320 320 320 318 315 315 309 301 298 290
273 274 274 274 274 274 274 275 276 277 278 279 281 283 285 286 286 286 288 291 292 293 295 297 300 303 306 310 315 317 316 316 315 315 316 315 316 315 316 314 306 300 294
272 272 272 273 272 273 273 274 275 276 277 278 280 282 282 283 284 286 289 291 292 293 294 296 297 300 304 307 309 312 315 317 314 311 309 306 306 306 307 308 311 307 298
271 271 270 271 271 272 273 273 274 276 277 278 280 280 281 283 284 286 288 289 291 293 294 295 296 297 299 303 306 308 311 315 312 303 302 299 298 299 300 303 306 305 305
269 269 269 270 270 271 271 272 272 273 274 275 276 278 278 279 281 282 284 286 289 292 293 294 296 296 297 298 301 305 308 308 305 301 300 299 299 299 298 298 299 300 300
268 268 268 269 269 269 270 271 271 272 273 274 275 276 277 278 279 280 282 284 287 289 291 293 294 295 296 297 298 301 303 305 304 301 301 299 295 294 293 293 290 292 291
267 267 267 268 268 269 269 270 271 272 273 274 275 276 277 278 278 280 281 282 283 284 286 288 289 292 293 294 297 300 301 301 300 300 300 294 292 292 291 291 290 289 290
265 265 266 266 267 268 269 269 270 271 273 274 275 276 277 278 279 279 280 281 282 284 287 289 291 292 293 294 296 298 298 297 297 298 296 293 293 292 290 290 289 291 290
263 264 265 265 266 267 267 268 269 269 271 272 273 275 276 277 278 279 282 283 285 285 288 291 292 293 293 294 296 297 297 295 295 296 295 293 293 292 289 289 289 291 289
262 262 263 264 265 266 266 267 267 268 268 269 270 271 273 275 276 277 279 280 285 288 289 291 292 293 294 294 295 296 297 296 294 295 294 293 292 291 290 290 289 290 288
261 262 262 263 264 264 265 266 266 267 267 268 268 269 270 271 272 275 276 278 286 291 291 292 293 293 294 295 295 296 296 295 294 293 293 292 291 291 291 290 289 289 288
260 261 262 262 262 263 264 264 265 265 266 267 267 268 268 270 271 271 273 275 276 287 292 292 293 293 294 294 295 295 295 294 293 293 293 291 291 291 291 290 289 288 287
259 260 260 260 261 262 262 263 263 264 265 265 266 266 269 269 268 269 270 272 274 275 278 291 292 292 293 294 294 295 294 294 293 292 292 291 291 291 290 289 289 288 286
258 258 258 259 260 261 261 262 262 263 263 264 264 264 266 266 266 267 268 269 270 272 274 277 290 291 292 292 293 293 293 292 292 291 292 291 290 290 290 289 288 287 285
257 257 257 258 258 259 260 260 261 261 262 262 263 263 264 264 265 265 266 267 268 269 271 273 277 289 290 291 291 292 292 292 291 291 291 290 290 290 290 289 287 285 283
256 256 256 256 257 257 258 259 259 260 260 261 261 262 262 263 263 264 264 265 266 267 268 270 273 276 287 290 290 290 291 291 291 290 290 290 290 289 289 287 285 283 280
255 255 254 254 255 256 256 257 257 258 259 259 260 260 261 261 262 262 263 264 264 265 267 268 270 272 275 279 289 290 290 290 290 289 289 289 289 289 288 286 284 281 278
255 254 254 254 254 254 255 255 256 256 257 258 258 259 259 260 261 261 262 263 263 265 266 267 268 270 272 276 281 288 289 289 289 289 288 288 288 287 285 284 281 278 277
Wind_Speed
30 29 28 27 25 24 24 24 23 22 21 20 18 20 24 27 30 33 36 34 33 34 35 35 37 36 34 33 34 34 34 32 19 31 32 30 27 27 31 30 29 27 26
28 27 27 27 27 27 27 26 26 27 27 26 25 23 21 23 26 29 34 30 32 34 35 35 39 34 36 37 33 33 34 34 33 24 26 31 31 32 35 33 32 30 29
28 28 28 29 29 29 29 29 30 30 30 30 29 28 27 26 24 25 30 30 32 34 35 35 38 35 37 36 36 36 35 34 34 32 27 27 33 33 33 32 31 30 28
28 27 26 27 27 28 30 32 33 34 34 34 32 30 31 31 30 27 27 29 33 35 37 37 42 40 40 40 38 38 37 32 31 32 28 21 27 27 37 34 31 33 30
25 24 24 24 24 26 28 31 33 34 35 34 34 36 35 34 31 29 30 30 30 32 35 38 43 44 46 44 38 37 35 34 33 29 27 15 17 16 30 30 28 37 31
22 23 23 23 26 27 28 29 29 28 28 29 30 31 36 37 37 36 33 35 35 33 35 38 41 42 49 49 52 55 44 35 35 30 27 19 26 28 33 36 27 13 4
21 20 20 24 26 27 27 27 28 30 30 30 30 29 34 37 36 36 37 36 36 37 37 38 39 40 42 43 47 56 57 57 56 44 32 35 32 42 40 32 32 29 17
16 20 23 26 27 27 27 27 29 29 30 30 32 31 35 41 37 36 35 37 39 40 40 43 41 43 44 43 42 40 50 57 61 59 50 46 50 46 53 47 45 33 21
22 25 27 28 30 31 31 31 31 32 32 34 33 35 35 47 36 34 34 35 37 42 44 43 41 43 48 47 43 42 45 49 54 58 62 57 49 50 47 38 29 25 4
26 27 29 30 32 33 33 35 35 35 36 36 40 34 33 42 44 39 35 35 38 38 43 44 45 50 53 47 43 40 34 48 42 48 52 54 51 53 49 49 46 27 13
25 28 30 32 33 33 34 34 36 37 37 37 38 39 39 36 45 36 33 35 35 38 39 41 41 41 43 47 48 44 47 46 44 47 41 37 39 44 47 46 44 43 29
26 29 31 32 32 33 34 35 33 33 35 34 36 41 36 36 37 41 38 38 38 39 42 41 42 41 43 46 46 48 54 53 38 34 29 28 30 35 40 44 43 38 37
29 31 31 32 32 32 33 34 32 29 30 31 29 33 41 36 36 36 39 40 41 41 39 42 44 49 51 53 49 49 49 46 34 29 30 32 38 38 41 36 35 34 30
28 29 30 30 32 32 31 30 29 28 29 29 27 30 36 44 40 37 36 37 39 38 35 34 37 40 45 49 47 42 43 41 38 35 34 33 30 37 34 37 30 34 28
26 28 28 27 29 32 31 31 31 30 30 34 32 34 35 41 45 46 50 49 51 52 53 48 44 41 39 37 37 36 35 34 34 33 29 28 31 33 30 36 33 32 22
26 26 27 29 30 30 33 36 29 31 32 34 36 36 42 43 55 56 55 56 58 61 52 42 37 36 34 33 30 30 28 31 33 32 31 34 32 33 30 29 34 34 27
26 28 29 29 28 30 31 32 36 41 31 29 29 33 38 46 50 56 55 55 60 58 42 38 34 34 35 34 32 31 28 31 32 33 34 34 33 32 34 33 30 31 26
26 29 28 28 29 31 30 32 32 32 37 44 34 37 38 43 46 52 54 55 48 40 37 34 33 35 35 34 32 32 31 28 31 33 33 33 33 33 32 30 34 30 30
29 25 27 29 30 30 31 30 30 31 30 35 42 39 34 41 45 48 47 36 39 34 33 33 34 34 34 35 35 34 32 31 32 32 32 32 33 34 32 35 35 36 36
23 25 27 29 30 28 28 28 29 30 31 31 33 35 40 42 38 39 38 39 39 41 33 34 34 35 36 36 35 34 31 30 30 32 33 33 34 34 32 33 37 34 34
24 25 26 28 28 28 28 28 30 29 30 32 33 35 41 39 35 35 36 37 38 40 44 36 33 34 34 34 33 32 32 32 33 34 34 33 34 32 33 34 35 35 34
25 26 28 27 27 28 29 28 29 30 29 32 35 36 39 33 33 35 37 39 41 41 42 45 37 34 32 32 30 29 30 31 31 33 33 32 32 33 32 32 33 34 35
25 29 29 28 28 28 28 28 27 30 30 32 34 35 34 33 34 36 39 42 42 44 44 43 44 34 32 30 31 32 32 32 33 35 33 32 31 31 32 32 33 32 34
28 28 27 28 28 28 27 29 29 31 31 31 33 33 34 35 36 38 40 41 42 43 43 41 41 42 36 32 32 33 35 35 35 37 40 36 34 33 32 33 35 36 36
30 27 26 25 26 27 28 29 29 30 31 31 32 32 34 36 36 38 39 39 42 43 42 42 38 40 39 38 33 33 36 38 36 35 34 33 32 33 32 32 34 35 37
27 27 27 26 24 24 25 27 28 29 30 32 32 32 33 34 36 38 39 40 44 44 43 40 40 43 44 39 31 31 36 34 36 37 35 32 28 27 28 29 35 34 41
Wind_Direction
39 39 38 35 33 33 30 21 14 4 355 347 332 312 297 280 275 267 263 266 253 256 252 248 249 248 244 243 239 237 235 232 239 253 251 248 232 227 222 221 223 226 225
25 24 23 21 19 17 15 11 6 0 353 347 339 329 318 304 289 274 261 259 257 254 255 248 248 245 244 245 242 238 239 237 240 247 243 237 225 226 222 217 215 217 221
14 12 10 8 6 2 359 357 354 351 347 342 338 331 323 314 300 286 276 268 261 257 258 251 251 251 245 245 242 240 238 237 239 241 244 232 221 216 213 216 216 215 218
4 2 358 356 353 349 346 345 342 340 337 334 330 324 321 315 307 299 289 282 271 265 258 257 256 245 242 243 239 238 238 237 233 233 234 218 213 210 213 204 207 214 213
354 351 346 345 344 342 339 336 333 332 329 326 323 319 316 312 306 302 299 290 283 278 271 266 261 258 251 242 240 240 238 235 235 230 228 193 191 189 199 209 209 214 212
348 341 342 341 337 335 334 331 328 322 319 317 312 309 306 304 303 302 301 297 293 284 275 271 267 265 263 256 248 245 241 233 233 233 228 218 207 206 201 202 197 174 188
345 345 343 335 334 334 332 330 325 322 319 314 308 306 300 296 296 297 300 295 289 285 280 277 274 268 266 265 258 249 248 246 239 233 223 224 217 213 209 198 193 192 194
346 344 341 338 335 334 331 328 324 321 317 314 310 307 301 295 294 294 293 291 289 284 276 272 268 267 265 260 256 247 244 242 245 237 235 232 222 223 220 214 206 194 183
352 345 341 339 335 334 332 329 326 321 316 310 306 303 298 296 298 299 298 290 283 281 280 274 267 265 261 260 258 247 242 246 248 245 238 236 230 219 218 202 175 167 147
347 341 337 338 335 332 330 327 324 321 316 315 309 306 302 298 300 299 295 287 281 280 280 277 272 265 264 260 257 247 244 245 244 240 238 236 226 218 219 213 193 175 157
340 338 337 336 333 328 323 321 318 315 311 308 304 302 300 299 300 302 300 288 279 281 278 280 278 275 272 270 262 252 245 249 243 236 230 221 208 203 201 203 207 193 178
338 337 334 331 326 321 317 312 311 308 305 304 303 302 301 300 299 301 300 295 290 281 279 278 277 281 281 277 271 256 254 250 236 222 213 205 194 189 196 195 199 197 208
336 333 331 326 322 317 312 308 307 305 300 299 302 301 302 304 301 299 302 300 294 286 278 278 278 279 281 279 274 262 255 246 230 216 211 207 201 194 191 190 192 192 200
332 329 326 321 316 313 308 304 301 301 298 296 300 299 301 302 303 304 301 300 296 293 296 296 286 282 279 274 269 259 246 240 227 218 215 208 189 179 177 179 163 166 161
328 323 320 317 313 309 304 301 300 294 292 296 298 298 300 299 298 299 297 294 290 285 285 284 281 277 276 272 267 254 242 230 221 218 208 188 183 177 178 178 162 164 167
323 319 316 313 310 306 306 306 303 300 299 294 296 296 299 292 297 298 296 293 290 286 282 274 271 269 268 265 262 255 234 220 217 212 198 191 189 181 172 181 165 174 165
317 315 312 309 306 308 310 310 313 313 306 306 306 308 304 301 305 304 301 302 293 285 276 270 268 265 265 260 255 250 235 222 214 208 203 197 189 183 172 167 177 173 167
316 310 306 306 307 307 305 305 305 308 314 318 319 316 314 312 315 311 311 306 299 281 267 265 264 262 263 258 253 248 240 225 213 210 207 199 189 182 177 172 180 174 167
313 306 306 304 304 302 303 304 305 306 308 308 314 319 323 320 319 315 316 309 301 277 275 268 263 260 257 255 251 242 236 226 214 210 210 201 192 184 187 175 182 179 167
309 305 304 306 305 306 308 308 310 311 310 311 314 316 322 324 325 321 317 317 314 307 277 271 267 263 258 249 242 242 234 221 214 211 209 204 196 190 188 182 177 178 173
312 312 312 310 308 309 311 311 311 309 310 310 311 315 322 327 321 317 317 316 316 312 318 284 271 267 261 248 241 236 227 221 214 211 207 204 198 192 190 186 179 182 168
319 317 317 311 310 310 310 311 310 310 311 312 314 317 326 326 321 319 320 319 318 315 315 320 292 275 263 249 239 229 223 219 214 210 208 204 200 196 190 184 180 175 166
321 320 318 315 313 313 313 314 315 313 315 317 317 319 324 324 323 328 323 321 321 321 321 318 322 293 275 258 239 229 224 219 214 207 205 201 198 195 189 183 178 172 167
321 319 316 315 316 315 315 317 317 314 318 319 318 319 323 321 328 328 324 323 324 323 322 321 321 326 305 271 251 237 228 227 219 212 206 204 199 193 189 183 178 173 166
326 321 318 316 316 316 319 319 315 317 320 317 318 321 321 324 327 326 324 326 328 327 325 324 323 324 323 330 271 247 235 228 220 213 207 206 201 194 189 180 174 169 161
325 325 322 316 313 313 314 315 317 318 318 317 318 319 322 324 323 324 326 329 329 331 330 327 326 329 334 332 333 278 246 230 221 213 203 200 190 185 179 174 167 165 159